Time,TemperatureF,DewpointF,PressureIn,WindDirection,WindDirectionDegrees,WindSpeedMPH,WindSpeedGustMPH,Humidity,HourlyPrecipIn,Conditions,Clouds,dailyrainin,SoftwareType,DateUTC
2013-07-14 00:13:00,85.8,46.0,30.03,SSW,198,5.0,10.0,25,0.00,,,0.00,weatherlink.com 1.10,2013-07-14 06:13:00,
2013-07-14 00:28:00,85.5,46.0,30.03,SSE,162,2.0,9.0,25,0.00,,,0.00,weatherlink.com 1.10,2013-07-14 06:28:00,
2013-07-14 00:44:00,85.1,46.0,30.03,SSE,160,2.0,10.0,26,0.00,,,0.00,weatherlink.com 1.10,2013-07-14 06:44:00,
2013-07-14 00:59:00,84.9,47.0,30.03,SSE,166,5.0,7.0,27,0.00,,,0.00,weatherlink.com 1.10,2013-07-14 06:59:00,
2013-07-14 01:14:00,84.5,47.0,30.03,SSE,167,5.0,7.0,27,0.00,,,0.00,weatherlink.com 1.10,2013-07-14 07:14:00,
2013-07-14 01:29:00,84.1,47.0,30.03,South,186,3.0,8.0,27,0.00,,,0.00,weatherlink.com 1.10,2013-07-14 07:29:00,
2013-07-14 01:44:00,83.8,47.0,30.02,SW,214,4.0,10.0,28,0.00,,,0.00,weatherlink.com 1.10,2013-07-14 07:44:00,
2013-07-14 01:59:00,83.5,47.0,30.02,SE,143,3.0,9.0,28,0.00,,,0.00,weatherlink.com 1.10,2013-07-14 07:59:00,
2013-07-14 02:15:00,83.3,47.0,30.02,South,180,3.0,12.0,28,0.00,,,0.00,weatherlink.com 1.10,2013-07-14 08:15:00,
2013-07-14 02:30:00,83.0,47.0,30.02,SSE,166,4.0,8.0,29,0.00,,,0.00,weatherlink.com 1.10,2013-07-14 08:30:00,
2013-07-14 02:45:00,82.7,47.0,30.02,South,177,4.0,11.0,29,0.00,,,0.00,weatherlink.com 1.10,2013-07-14 08:45:00,
2013-07-14 03:00:00,82.5,47.0,30.02,South,191,10.0,10.0,29,0.00,,,0.00,weatherlink.com 1.10,2013-07-14 09:00:00,
2013-07-14 03:15:00,82.0,47.0,30.03,SE,134,4.0,10.0,29,0.00,,,0.00,weatherlink.com 1.10,2013-07-14 09:15:00,
2013-07-14 03:31:00,81.5,47.0,30.03,SE,144,5.0,9.0,30,0.00,,,0.00,weatherlink.com 1.10,2013-07-14 09:31:00,
2013-07-14 03:46:00,80.6,47.0,30.03,SSW,211,0.0,5.0,31,0.00,,,0.00,weatherlink.com 1.10,2013-07-14 09:46:00,
2013-07-14 04:01:00,80.6,47.0,30.04,SSE,164,8.0,10.0,31,0.00,,,0.00,weatherlink.com 1.10,2013-07-14 10:01:00,
2013-07-14 04:16:00,80.3,49.0,30.03,SSE,166,5.0,9.0,33,0.00,,,0.00,weatherlink.com 1.10,2013-07-14 10:16:00,
2013-07-14 04:32:00,79.5,49.0,30.03,SSE,150,1.0,7.0,34,0.00,,,0.00,weatherlink.com 1.10,2013-07-14 10:32:00,
2013-07-14 04:47:00,78.4,48.0,30.03,SE,130,1.0,5.0,34,0.00,,,0.00,weatherlink.com 1.10,2013-07-14 10:47:00,
2013-07-14 05:02:00,77.7,47.0,30.04,SE,128,0.0,3.0,34,0.00,,,0.00,weatherlink.com 1.10,2013-07-14 11:02:00,
2013-07-14 05:17:00,77.1,47.0,30.04,East,89,2.0,3.0,35,0.00,,,0.00,weatherlink.com 1.10,2013-07-14 11:17:00,
2013-07-14 05:32:00,76.8,47.0,30.05,East,80,1.0,3.0,35,0.00,,,0.00,weatherlink.com 1.10,2013-07-14 11:32:00,
2013-07-14 05:47:00,76.2,47.0,30.05,East,80,0.0,3.0,36,0.00,,,0.00,weatherlink.com 1.10,2013-07-14 11:47:00,
2013-07-14 06:03:00,75.6,48.0,30.06,ENE,59,0.0,1.0,38,0.00,,,0.00,weatherlink.com 1.10,2013-07-14 12:03:00,
2013-07-14 06:18:00,75.4,48.0,30.06,ENE,59,0.0,1.0,38,0.00,,,0.00,weatherlink.com 1.10,2013-07-14 12:18:00,
2013-07-14 06:33:00,74.9,48.0,30.06,West,271,0.0,2.0,38,0.00,,,0.00,weatherlink.com 1.10,2013-07-14 12:33:00,
2013-07-14 06:48:00,75.2,49.0,30.05,West,271,0.0,0.0,39,0.00,,,0.00,weatherlink.com 1.10,2013-07-14 12:48:00,
2013-07-14 07:03:00,75.9,50.0,30.06,West,271,0.0,0.0,40,0.00,,,0.00,weatherlink.com 1.10,2013-07-14 13:03:00,
2013-07-14 07:18:00,77.0,51.0,30.06,West,271,0.0,2.0,40,0.00,,,0.00,weatherlink.com 1.10,2013-07-14 13:18:00,
2013-07-14 07:33:00,78.1,53.0,30.06,West,269,2.0,2.0,42,0.00,,,0.00,weatherlink.com 1.10,2013-07-14 13:33:00,
2013-07-14 07:49:00,79.1,55.0,30.06,ESE,119,3.0,4.0,43,0.00,,,0.00,weatherlink.com 1.10,2013-07-14 13:49:00,
2013-07-14 08:04:00,80.0,56.0,30.07,SSE,165,5.0,7.0,44,0.00,,,0.00,weatherlink.com 1.10,2013-07-14 14:04:00,
2013-07-14 08:19:00,80.9,56.0,30.06,SSE,148,4.0,10.0,43,0.00,,,0.00,weatherlink.com 1.10,2013-07-14 14:19:00,
2013-07-14 08:34:00,81.8,56.0,30.06,SSW,200,3.0,9.0,42,0.00,,,0.00,weatherlink.com 1.10,2013-07-14 14:34:00,
2013-07-14 08:49:00,82.7,57.0,30.06,South,190,7.0,8.0,42,0.00,,,0.00,weatherlink.com 1.10,2013-07-14 14:49:00,
2013-07-14 09:04:00,83.5,57.0,30.06,South,180,3.0,11.0,41,0.00,,,0.00,weatherlink.com 1.10,2013-07-14 15:04:00,
2013-07-14 09:19:00,85.0,57.0,30.06,SSE,163,6.0,9.0,39,0.00,,,0.00,weatherlink.com 1.10,2013-07-14 15:19:00,
2013-07-14 09:35:00,85.6,58.0,30.05,SSE,151,5.0,10.0,39,0.00,,,0.00,weatherlink.com 1.10,2013-07-14 15:35:00,
2013-07-14 09:50:00,86.2,58.0,30.05,SE,134,5.0,9.0,39,0.00,,,0.00,weatherlink.com 1.10,2013-07-14 15:50:00,
2013-07-14 10:05:00,87.6,58.0,30.05,ESE,107,5.0,9.0,37,0.00,,,0.00,weatherlink.com 1.10,2013-07-14 16:05:00,
2013-07-14 10:20:00,88.1,59.0,30.05,South,190,8.0,12.0,37,0.00,,,0.00,weatherlink.com 1.10,2013-07-14 16:20:00,
2013-07-14 10:36:00,88.4,58.0,30.04,South,180,5.0,12.0,36,0.00,,,0.00,weatherlink.com 1.10,2013-07-14 16:36:00,
2013-07-14 10:51:00,89.6,57.0,30.04,ESE,111,7.0,12.0,33,0.00,,,0.00,weatherlink.com 1.10,2013-07-14 16:51:00,
2013-07-14 11:06:00,91.3,56.0,30.04,South,188,3.0,12.0,30,0.00,,,0.00,weatherlink.com 1.10,2013-07-14 17:06:00,
2013-07-14 11:21:00,91.2,57.0,30.04,SE,136,6.0,11.0,32,0.00,,,0.00,weatherlink.com 1.10,2013-07-14 17:21:00,
2013-07-14 11:36:00,91.2,56.0,30.04,WSW,240,5.0,9.0,31,0.00,,,0.00,weatherlink.com 1.10,2013-07-14 17:36:00,
2013-07-14 11:51:00,93.8,56.0,30.03,SSW,211,0.0,8.0,28,0.00,,,0.00,weatherlink.com 1.10,2013-07-14 17:51:00,
2013-07-14 12:07:00,95.8,55.0,30.02,ESE,105,8.0,9.0,26,0.00,,,0.00,weatherlink.com 1.10,2013-07-14 18:07:00,
2013-07-14 12:22:00,97.4,56.0,30.02,ESE,120,7.0,11.0,25,0.00,,,0.00,weatherlink.com 1.10,2013-07-14 18:22:00,
2013-07-14 12:37:00,97.6,54.0,30.02,SE,140,4.0,8.0,23,0.00,,,0.00,weatherlink.com 1.10,2013-07-14 18:37:00,
2013-07-14 12:52:00,98.2,54.0,30.02,SE,128,6.0,13.0,23,0.00,,,0.00,weatherlink.com 1.10,2013-07-14 18:52:00,
2013-07-14 13:07:00,97.7,54.0,30.01,SE,130,7.0,10.0,23,0.00,,,0.00,weatherlink.com 1.10,2013-07-14 19:07:00,
2013-07-14 13:23:00,99.3,54.0,30.00,ENE,70,0.0,7.0,22,0.00,,,0.00,weatherlink.com 1.10,2013-07-14 19:23:00,
2013-07-14 13:38:00,98.5,53.0,29.99,North,11,0.0,8.0,22,0.00,,,0.00,weatherlink.com 1.10,2013-07-14 19:38:00,
2013-07-14 13:53:00,100.9,54.0,29.99,East,88,3.0,10.0,21,0.00,,,0.00,weatherlink.com 1.10,2013-07-14 19:53:00,
2013-07-14 14:08:00,101.9,53.0,29.98,SSE,161,2.0,11.0,20,0.00,,,0.00,weatherlink.com 1.10,2013-07-14 20:08:00,
2013-07-14 14:23:00,99.6,51.0,29.96,ENE,76,2.0,7.0,20,0.00,,,0.00,weatherlink.com 1.10,2013-07-14 20:23:00,
2013-07-14 14:39:00,103.1,50.0,29.96,ESE,115,4.0,10.0,17,0.00,,,0.00,weatherlink.com 1.10,2013-07-14 20:39:00,
2013-07-14 14:54:00,103.2,50.0,29.95,North,349,4.0,10.0,17,0.00,,,0.00,weatherlink.com 1.10,2013-07-14 20:54:00,
2013-07-14 15:09:00,102.4,49.0,29.94,South,190,2.0,9.0,17,0.00,,,0.00,weatherlink.com 1.10,2013-07-14 21:09:00,
2013-07-14 15:24:00,103.3,50.0,29.93,East,94,5.0,11.0,17,0.00,,,0.00,weatherlink.com 1.10,2013-07-14 21:24:00,
2013-07-14 15:39:00,104.0,49.0,29.93,SSW,201,5.0,11.0,16,0.00,,,0.00,weatherlink.com 1.10,2013-07-14 21:39:00,
2013-07-14 15:54:00,103.9,49.0,29.91,ENE,71,5.0,6.0,16,0.00,,,0.00,weatherlink.com 1.10,2013-07-14 21:54:00,
2013-07-14 16:10:00,105.0,48.0,29.91,ENE,70,2.0,6.0,15,0.00,,,0.00,weatherlink.com 1.10,2013-07-14 22:10:00,
2013-07-14 16:25:00,103.3,48.0,29.90,WNW,285,1.0,12.0,16,0.00,,,0.00,weatherlink.com 1.10,2013-07-14 22:25:00,
2013-07-14 16:40:00,100.6,48.0,29.89,SE,146,4.0,7.0,17,0.00,,,0.00,weatherlink.com 1.10,2013-07-14 22:40:00,
2013-07-14 16:55:00,103.6,49.0,29.89,SE,132,4.0,9.0,16,0.00,,,0.00,weatherlink.com 1.10,2013-07-14 22:55:00,
2013-07-14 17:11:00,102.4,48.0,29.88,SE,141,4.0,7.0,16,0.00,,,0.00,weatherlink.com 1.10,2013-07-14 23:11:00,
2013-07-14 17:26:00,99.5,48.0,29.88,East,86,0.0,6.0,18,0.00,,,0.00,weatherlink.com 1.10,2013-07-14 23:26:00,
2013-07-14 17:41:00,97.4,48.0,29.88,SSW,205,2.0,7.0,19,0.00,,,0.00,weatherlink.com 1.10,2013-07-14 23:41:00,
2013-07-14 17:56:00,96.5,47.0,29.87,WNW,286,2.0,7.0,19,0.00,,,0.00,weatherlink.com 1.10,2013-07-14 23:56:00,
2013-07-14 18:11:00,96.8,48.0,29.87,South,171,5.0,6.0,19,0.00,,,0.00,weatherlink.com 1.10,2013-07-15 00:11:00,
2013-07-14 18:26:00,100.3,48.0,29.87,SSW,199,3.0,5.0,17,0.00,,,0.00,weatherlink.com 1.10,2013-07-15 00:26:00,
2013-07-14 18:42:00,99.7,47.0,29.86,South,188,3.0,3.0,17,0.00,,,0.00,weatherlink.com 1.10,2013-07-15 00:42:00,
2013-07-14 18:57:00,99.6,49.0,29.86,SSE,155,3.0,6.0,18,0.00,,,0.00,weatherlink.com 1.10,2013-07-15 00:57:00,
2013-07-14 19:12:00,98.5,48.0,29.86,South,177,6.0,6.0,18,0.00,,,0.00,weatherlink.com 1.10,2013-07-15 01:12:00,
2013-07-14 19:27:00,96.7,48.0,29.87,SSW,211,7.0,8.0,19,0.00,,,0.00,weatherlink.com 1.10,2013-07-15 01:27:00,
2013-07-14 19:42:00,96.1,47.0,29.87,South,174,5.0,8.0,19,0.00,,,0.00,weatherlink.com 1.10,2013-07-15 01:42:00,
2013-07-14 19:57:00,94.9,49.0,29.87,SSW,205,2.0,5.0,21,0.00,,,0.00,weatherlink.com 1.10,2013-07-15 01:57:00,
2013-07-14 20:13:00,93.5,49.0,29.87,SSW,206,1.0,6.0,22,0.00,,,0.00,weatherlink.com 1.10,2013-07-15 02:13:00,
2013-07-14 20:28:00,92.5,49.0,29.87,SSW,202,0.0,2.0,23,0.00,,,0.00,weatherlink.com 1.10,2013-07-15 02:28:00,
2013-07-14 20:43:00,91.9,49.0,29.87,SSW,203,2.0,5.0,23,0.00,,,0.00,weatherlink.com 1.10,2013-07-15 02:43:00,
2013-07-14 20:58:00,92.5,48.0,29.87,SW,216,1.0,5.0,22,0.00,,,0.00,weatherlink.com 1.10,2013-07-15 02:58:00,
2013-07-14 21:14:00,92.4,50.0,29.88,SW,224,0.0,4.0,24,0.00,,,0.00,weatherlink.com 1.10,2013-07-15 03:14:00,
2013-07-14 21:29:00,92.5,48.0,29.88,SW,214,2.0,6.0,22,0.00,,,0.00,weatherlink.com 1.10,2013-07-15 03:29:00,
2013-07-14 21:44:00,92.4,49.0,29.89,SSW,213,0.0,2.0,23,0.00,,,0.00,weatherlink.com 1.10,2013-07-15 03:44:00,
2013-07-14 21:59:00,92.1,49.0,29.89,WSW,242,1.0,3.0,23,0.00,,,0.00,weatherlink.com 1.10,2013-07-15 03:59:00,
2013-07-14 22:14:00,91.9,49.0,29.89,WSW,239,4.0,5.0,23,0.00,,,0.00,weatherlink.com 1.10,2013-07-15 04:14:00,
2013-07-14 22:29:00,92.4,48.0,29.90,NW,318,6.0,16.0,22,0.00,,,0.00,weatherlink.com 1.10,2013-07-15 04:29:00,
2013-07-14 22:45:00,91.9,49.0,29.90,West,261,3.0,11.0,23,0.00,,,0.00,weatherlink.com 1.10,2013-07-15 04:45:00,
2013-07-14 23:00:00,91.5,48.0,29.91,WNW,298,7.0,8.0,23,0.00,,,0.00,weatherlink.com 1.10,2013-07-15 05:00:00,
2013-07-14 23:15:00,90.6,51.0,29.93,NE,36,1.0,15.0,26,0.00,,,0.00,weatherlink.com 1.10,2013-07-15 05:15:00,
2013-07-14 23:30:00,87.3,53.0,29.96,North,355,7.0,12.0,31,0.00,,,0.00,weatherlink.com 1.10,2013-07-15 05:30:00,
2013-07-14 23:46:00,83.3,55.0,29.96,NW,323,8.0,9.0,38,0.00,,,0.00,weatherlink.com 1.10,2013-07-15 05:46:00,